Lid_Strength_Index
1 4 8 9 13 14 16 13 10 10 11 7 6 7 8 7 9 11 2 1 1 1 0 -0 -1 -1 -1 -1 -1 -1 -1 -1 -1 -1 -1 -1 -1 -1 -1 -1 -1 -1 -1 -1 -1 -1 -1 -1 -1
3 6 9 11 15 17 16 12 11 10 8 10 7 7 7 9 5 5 4 1 0 0 -0 -0 -1 -1 -1 -1 -1 -1 -1 -1 -1 -1 -1 -1 -1 -1 -1 -1 -1 -1 -1 -1 -2 -1 -1 -1 -1
6 7 12 13 16 17 15 12 11 10 8 9 9 5 6 7 4 4 2 1 0 0 -0 -0 -1 -1 -1 -1 -1 -1 -1 -1 -1 -1 -1 -1 -1 -1 -1 -1 -1 -1 -1 -1 -1 -1 -1 -1 -2
8 10 12 15 16 14 13 11 11 10 9 8 6 8 5 3 4 2 1 0 1 0 -0 -0 -1 -1 -1 -1 -1 -1 -1 -1 -1 -1 -1 -1 -1 -1 -1 -1 -1 -1 -1 -1 -1 -2 -1 -2 -2
10 12 16 17 16 14 11 10 11 11 10 7 6 8 7 4 2 1 1 1 1 1 0 -0 -1 -1 -1 -1 -1 -1 -1 -1 -1 -1 -1 -1 -1 -1 -1 -1 -1 -1 -2 -2 -1 -1 -1 -2 -2
12 12 17 18 15 13 10 9 11 10 7 7 7 7 7 3 3 2 1 1 0 1 0 -0 -1 -1 -1 -1 -1 -1 -1 -1 -1 -1 -1 -1 -1 -1 -1 -1 -1 -1 -2 -2 -2 -1 -2 -2 -2
11 14 16 15 14 13 10 10 11 11 11 9 6 9 7 4 2 1 1 1 0 0 0 0 -0 -1 -1 -1 -1 -1 -1 -1 -1 -1 -1 -1 -1 -1 -1 -1 -1 -2 -2 -2 -2 -2 -2 -2 -2
10 12 15 14 14 14 9 11 10 12 11 7 6 8 9 5 2 2 1 1 1 1 0 0 0 -0 -0 -0 -1 -1 -1 -1 -1 -1 -1 -1 -1 -1 -1 -1 -1 -1 -1 -2 -2 -2 -2 -2 -2
10 14 15 14 13 13 10 11 9 10 10 10 9 6 6 3 2 2 3 2 2 1 1 0 0 0 0 0 -0 -1 -1 -1 -1 -1 -1 -1 -0 -0 -1 -1 -1 -1 -1 -2 -2 -2 -2 -2 -3
12 15 13 10 10 12 11 10 10 10 10 11 10 9 3 3 3 4 4 4 3 2 1 1 0 0 0 -0 0 0 -0 -0 -0 -0 -0 -0 -0 -0 -1 -1 -1 -1 -1 -1 -1 -2 -2 -2 -0
13 14 10 9 9 9 9 9 9 9 11 9 11 11 7 6 4 4 4 3 3 2 1 1 1 0 0 0 -0 -0 -0 -0 -0 -0 -0 -0 -0 -0 -0 -0 -0 -0 -1 -0 -1 -0 -1 -0 -1
14 11 9 8 7 8 9 9 9 9 8 7 9 9 8 6 5 4 4 3 3 2 2 1 1 0 0 -0 -0 0 -0 -0 -0 -0 -0 -0 -0 -0 -0 -0 -0 -0 -0 -0 -0 -0 -0 -0 -1
12 11 10 8 8 9 8 9 10 9 7 7 9 10 10 9 6 6 3 3 2 3 2 1 1 1 0 1 0 0 0 -0 0 -0 -0 -0 0 0 -0 -0 -0 -0 -0 -0 -0 -0 -0 -0 -0
10 9 9 9 10 9 11 10 9 9 7 7 8 9 10 10 9 9 5 4 3 2 2 1 1 0 1 1 1 0 0 0 0 0 -0 -0 0 1 0 0 -0 -0 -0 -0 -0 1 1 1 1
9 12 10 9 8 10 9 12 12 10 8 9 9 9 10 10 10 9 9 8 6 4 2 2 2 1 1 1 1 1 1 -0 -0 -0 -0 -1 -0 1 1 1 1 0 -0 0 1 1 2 2 2
11 12 15 12 7 9 11 15 11 9 8 9 8 8 10 10 10 10 9 8 6 4 2 3 1 2 2 2 1 1 1 0 -0 -0 -0 -0 -0 -0 0 1 1 0 0 1 1 1 2 2 2
13 15 15 12 9 10 12 14 12 10 9 9 8 9 9 11 11 10 9 6 5 3 2 2 2 2 3 2 1 1 1 1 1 0 0 -0 -0 -0 -0 0 0 0 1 1 1 1 1 1 2
15 15 14 13 12 10 12 13 10 9 11 11 10 9 9 10 10 8 8 5 3 3 3 2 2 2 2 2 1 0 1 1 1 1 1 1 1 0 -0 -0 0 0 1 2 2 2 2 2 2
12 13 13 12 10 11 12 11 11 9 10 11 10 9 10 9 7 7 6 5 5 6 5 4 4 4 4 5 6 5 3 3 1 1 1 1 1 -0 0 0 0 0 1 1 2 2 2 2 2
11 12 13 11 9 10 11 11 10 9 10 10 9 8 8 8 8 6 5 4 3 5 5 6 6 7 8 8 8 7 4 3 3 1 -0 -0 -0 -0 -0 0 0 0 1 1 1 1 2 2 2
11 12 12 12 11 10 11 12 11 9 9 8 9 8 8 8 7 5 4 5 3 4 5 6 7 7 7 5 5 5 3 3 2 1 1 0 -0 -0 -0 -0 0 0 0 1 1 1 2 3 1
13 10 10 11 13 15 12 16 13 11 10 9 9 9 8 8 8 7 4 4 4 3 4 3 3 3 2 2 2 3 4 4 3 3 2 1 -0 -0 -0 -0 -0 0 0 1 1 1 1 2 3
11 9 10 11 14 14 14 15 13 11 11 10 9 8 8 7 7 7 5 4 4 5 5 4 3 3 2 3 3 4 4 4 3 3 2 2 1 0 -0 -0 -0 -0 0 0 1 1 1 1 2
9 12 13 14 15 18 15 15 15 13 11 9 8 7 8 8 8 8 6 6 6 6 5 4 3 3 3 3 3 3 3 4 4 4 3 2 2 1 0 -0 0 0 0 0 0 0 1 1 1
12 15 18 19 19 18 15 15 14 11 9 8 8 9 9 8 9 8 8 7 7 6 5 4 4 4 4 4 3 3 3 4 4 4 4 3 2 2 1 1 1 1 1 0 0 1 1 1 1
13 15 18 20 20 18 13 16 13 8 8 9 9 9 9 10 10 9 9 8 8 8 8 8 7 6 6 5 5 5 4 5 4 4 4 3 2 2 1 1 1 1 1 0 0 1 1 1 1
13 15 13 16 16 18 16 13 11 9 9 8 8 9 10 10 10 10 9 9 9 9 9 9 9 8 7 7 6 6 5 5 5 4 3 3 2 1 1 1 1 1 1 1 1 2 1 1 1
11 10 15 16 21 21 17 16 15 12 11 10 10 10 10 10 9 9 8 8 8 8 8 7 7 7 7 7 7 7 6 5 5 4 4 3 2 2 2 1 1 2 2 2 2 2 2 1 1
12 14 13 14 16 20 20 17 11 11 11 11 11 11 10 10 9 9 9 8 8 8 8 8 8 7 8 7 7 7 7 7 6 6 5 4 3 2 2 2 2 2 2 1 2 2 2 2 1
11 13 13 17 18 17 19 17 11 12 11 11 11 10 10 10 10 10 9 9 9 9 8 8 8 8 8 7 8 8 8 7 7 7 6 5 5 4 3 3 2 1 1 2 3 3 2 2 2